TimeCST,TemperatureF,Dew PointF,Humidity,Sea Level PressureIn,VisibilityMPH,Wind Direction,Wind SpeedMPH,Gust SpeedMPH,PrecipitationIn,Events,Conditions,WindDirDegrees,DateUTC
12:15 AM,54.9,48.0,78,30.06,10.0,ESE,8.1,-,N/A,,Clear,120,2013-02-15 06:15:00
12:35 AM,55.2,48.9,79,30.06,10.0,SE,5.8,-,N/A,,Clear,130,2013-02-15 06:35:00
12:55 AM,55.4,49.3,80,30.06,10.0,SE,5.8,-,N/A,,Clear,130,2013-02-15 06:55:00
1:15 AM,55.4,49.6,81,30.07,10.0,ESE,5.8,-,N/A,,Clear,110,2013-02-15 07:15:00
1:35 AM,57.0,50.5,79,30.07,10.0,East,4.6,-,N/A,,Clear,90,2013-02-15 07:35:00
1:55 AM,56.3,50.2,80,30.07,10.0,East,3.5,-,N/A,,Clear,80,2013-02-15 07:55:00
2:15 AM,54.7,49.8,84,30.07,10.0,East,3.5,-,N/A,,Clear,90,2013-02-15 08:15:00
2:35 AM,55.9,50.0,80,30.07,10.0,East,3.5,-,N/A,,Clear,90,2013-02-15 08:35:00
2:55 AM,53.2,48.7,85,30.07,10.0,Calm,Calm,-,N/A,,Clear,0,2013-02-15 08:55:00
3:15 AM,52.2,48.9,89,30.07,10.0,Calm,Calm,-,N/A,,Clear,0,2013-02-15 09:15:00
3:35 AM,51.4,48.6,90,30.08,10.0,Calm,Calm,-,N/A,,Clear,0,2013-02-15 09:35:00
3:55 AM,50.4,48.0,92,30.08,10.0,NNE,3.5,-,N/A,,Clear,20,2013-02-15 09:55:00
4:15 AM,50.7,48.4,92,30.09,10.0,NE,3.5,-,N/A,,Clear,40,2013-02-15 10:15:00
4:35 AM,51.3,49.1,92,30.09,10.0,NE,3.5,-,N/A,,Clear,40,2013-02-15 10:35:00
4:55 AM,51.1,49.1,93,30.09,10.0,NE,5.8,-,N/A,,Clear,40,2013-02-15 10:55:00
5:15 AM,50.9,49.1,94,30.09,10.0,ENE,5.8,-,N/A,,Clear,60,2013-02-15 11:15:00
5:35 AM,51.1,49.3,94,30.09,10.0,ENE,5.8,-,N/A,,Clear,60,2013-02-15 11:35:00
5:55 AM,50.7,48.9,94,30.09,10.0,ENE,4.6,-,N/A,,Clear,70,2013-02-15 11:55:00
6:15 AM,50.5,48.7,94,30.10,10.0,ENE,5.8,-,N/A,,Clear,60,2013-02-15 12:15:00
6:35 AM,50.7,49.3,95,30.10,10.0,ENE,4.6,-,N/A,,Clear,60,2013-02-15 12:35:00
6:55 AM,51.3,49.8,95,30.11,10.0,ENE,4.6,-,N/A,,Clear,60,2013-02-15 12:55:00
7:15 AM,50.9,49.5,95,30.11,10.0,ENE,4.6,-,N/A,,Clear,70,2013-02-15 13:15:00
7:35 AM,51.8,50.5,95,30.12,10.0,ENE,4.6,-,N/A,,Clear,60,2013-02-15 13:35:00
7:55 AM,52.9,51.6,95,30.13,10.0,NE,4.6,-,N/A,,Clear,50,2013-02-15 13:55:00
8:15 AM,55.6,54.1,95,30.14,10.0,NE,4.6,-,N/A,,Clear,50,2013-02-15 14:15:00
8:35 AM,59.5,56.7,90,30.15,10.0,ENE,4.6,-,N/A,,Clear,60,2013-02-15 14:35:00
8:55 AM,63.1,57.7,83,30.15,10.0,ENE,5.8,-,N/A,,Clear,70,2013-02-15 14:55:00
9:15 AM,65.8,56.5,72,30.16,10.0,East,3.5,-,N/A,,Clear,90,2013-02-15 15:15:00
9:35 AM,67.8,53.6,60,30.17,10.0,East,4.6,-,N/A,,Clear,100,2013-02-15 15:35:00
9:55 AM,68.7,51.8,55,30.17,10.0,East,6.9,-,N/A,,Clear,100,2013-02-15 15:55:00
10:15 AM,69.1,52.0,54,30.18,10.0,East,6.9,-,N/A,,Clear,90,2013-02-15 16:15:00
10:35 AM,69.8,51.4,52,30.18,10.0,East,8.1,-,N/A,,Clear,90,2013-02-15 16:35:00
10:55 AM,70.0,51.1,51,30.18,10.0,East,8.1,-,N/A,,Clear,90,2013-02-15 16:55:00
11:15 AM,70.5,50.7,49,30.18,10.0,East,9.2,-,N/A,,Clear,90,2013-02-15 17:15:00
11:55 AM,71.2,51.3,49,30.18,10.0,East,9.2,-,N/A,,Scattered Clouds,100,2013-02-15 17:55:00
12:15 PM,70.5,51.4,51,30.18,10.0,East,12.7,-,N/A,,Overcast,80,2013-02-15 18:15:00
12:35 PM,70.3,51.8,52,30.17,10.0,ENE,11.5,17.3,N/A,,Overcast,70,2013-02-15 18:35:00
12:55 PM,69.8,51.4,52,30.16,10.0,ENE,8.1,-,N/A,,Overcast,70,2013-02-15 18:55:00
1:15 PM,68.7,51.4,54,30.15,10.0,East,16.1,19.6,N/A,,Overcast,80,2013-02-15 19:15:00
1:35 PM,70.2,51.3,51,30.14,10.0,East,13.8,-,N/A,,Scattered Clouds,90,2013-02-15 19:35:00
1:55 PM,71.2,51.3,49,30.14,10.0,East,13.8,-,N/A,,Scattered Clouds,90,2013-02-15 19:55:00
2:15 PM,71.1,51.3,49,30.13,10.0,East,15.0,19.6,N/A,,Clear,90,2013-02-15 20:15:00
2:35 PM,71.1,51.1,49,30.12,10.0,East,15.0,-,N/A,,Clear,90,2013-02-15 20:35:00
2:55 PM,70.9,50.7,49,30.12,10.0,East,17.3,-,N/A,,Clear,80,2013-02-15 20:55:00
3:15 PM,70.7,50.2,48,30.12,10.0,East,11.5,15.0,N/A,,Clear,90,2013-02-15 21:15:00
3:35 PM,70.2,50.0,49,30.12,10.0,East,13.8,-,N/A,,Clear,100,2013-02-15 21:35:00
3:55 PM,69.6,49.8,49,30.12,10.0,East,16.1,-,N/A,,Clear,100,2013-02-15 21:55:00
4:15 PM,69.1,47.8,47,30.12,10.0,East,16.1,21.9,N/A,,Clear,100,2013-02-15 22:15:00
4:35 PM,68.5,42.6,39,30.12,10.0,East,13.8,19.6,N/A,,Clear,100,2013-02-15 22:35:00
4:55 PM,68.2,40.6,37,30.13,10.0,East,13.8,-,N/A,,Clear,100,2013-02-15 22:55:00
5:15 PM,67.3,41.2,39,30.13,10.0,East,9.2,12.7,N/A,,Clear,100,2013-02-15 23:15:00
5:35 PM,66.6,42.3,41,30.14,10.0,East,11.5,-,N/A,,Clear,100,2013-02-15 23:35:00
5:55 PM,65.1,43.3,45,30.15,10.0,East,9.2,-,N/A,,Clear,100,2013-02-15 23:55:00
6:15 PM,63.1,45.0,51,30.15,10.0,East,6.9,-,N/A,,Clear,100,2013-02-16 00:15:00
6:35 PM,61.3,46.0,57,30.16,10.0,East,5.8,-,N/A,,Clear,90,2013-02-16 00:35:00
6:55 PM,60.6,46.8,60,30.16,10.0,North,-9999.0,-,N/A,,Clear,0,2013-02-16 00:55:00
7:15 PM,59.9,48.0,65,30.17,10.0,East,5.8,-,N/A,,Clear,80,2013-02-16 01:15:00
7:35 PM,59.4,48.4,67,30.18,10.0,East,5.8,-,N/A,,Clear,90,2013-02-16 01:35:00
7:55 PM,58.5,48.4,69,30.19,10.0,East,4.6,-,N/A,,Clear,90,2013-02-16 01:55:00
8:15 PM,59.2,48.7,68,30.19,10.0,East,5.8,-,N/A,,Clear,100,2013-02-16 02:15:00
8:35 PM,58.3,48.2,69,30.20,10.0,East,3.5,-,N/A,,Clear,90,2013-02-16 02:35:00
8:55 PM,58.8,48.2,68,30.22,10.0,East,3.5,-,N/A,,Scattered Clouds,90,2013-02-16 02:55:00
9:15 PM,59.5,48.6,67,30.22,10.0,ENE,3.5,-,N/A,,Overcast,70,2013-02-16 03:15:00
9:35 PM,59.5,48.7,67,30.23,10.0,Calm,Calm,-,N/A,,Mostly Cloudy,0,2013-02-16 03:35:00
9:55 PM,58.1,49.8,74,30.26,10.0,North,8.1,-,N/A,,Mostly Cloudy,10,2013-02-16 03:55:00
10:15 PM,58.5,49.8,73,30.27,10.0,NNE,17.3,-,N/A,,Mostly Cloudy,20,2013-02-16 04:15:00
10:35 PM,59.4,44.8,58,30.29,10.0,NNE,18.4,26.5,N/A,,Mostly Cloudy,30,2013-02-16 04:35:00
10:55 PM,59.0,43.3,56,30.29,10.0,NNE,19.6,33.4,N/A,,Mostly Cloudy,30,2013-02-16 04:55:00
11:15 PM,58.1,43.7,59,30.30,10.0,NNE,17.3,27.6,N/A,,Scattered Clouds,20,2013-02-16 05:15:00
11:35 PM,57.4,43.5,60,30.31,10.0,NNE,17.3,24.2,N/A,,Mostly Cloudy,20,2013-02-16 05:35:00
11:55 PM,57.4,43.5,60,30.31,10.0,NNE,19.6,-,N/A,,Overcast,20,2013-02-16 05:55:00